Location: Barcelona
(41.3830°N, 2.1830°E)
Time: 07:55:13
(UTC+02:00)

ISS - Pass Details

Date: 16 October 2017
Orbit: 400 x 408 km, 51.6° (Epoch: 24 October)

Event Time Altitude Azimuth Distance (km) Brightness Sun altitude
Rises 20:41:46 0° 289° (WNW) 2,324 1.5 -18.2°
Reaches altitude 10° 20:44:36 10° 262° (W) 1,461 0.2 -18.7°
Maximum altitude 20:46:21 14° 230° (SW) 1,252 -0.8 -19.1°
Drops below altitude 10° 20:48:06 10° 197° (SSW) 1,457 -0.9 -19.4°
Enters shadow 20:49:23 - 181° (S) 1,799 -0.6 -19.6°
